,,PA_Meas_PMT16A,,PR_Meas_QMR101_102,,RH_Meas_QMH101,,SR_Meas_QMS101,,TA_Meas_QMH101,,GenWind,,GenWind,
time,status,PA,status,PR,status,RH,status,SR,status,TA,status,DirAvg,status,SpdAvg,
2016-07-30, 00:00:04,VALID,915.357,VALID,0,VALID,69.8076,VALID,261.727,VALID,25.8823,VALID,293,VALID,0.0105469,
2016-07-30, 00:01:04,VALID,915.335,VALID,0,VALID,71.3628,VALID,255.602,VALID,25.7827,VALID,22,VALID,0.405859,
2016-07-30, 00:02:04,VALID,915.349,VALID,0,VALID,71.4695,VALID,250.016,VALID,25.8804,VALID,13,VALID,0.228125,
2016-07-30, 00:03:04,VALID,915.325,VALID,0,VALID,70.6767,VALID,242.065,VALID,26.0171,VALID,47,VALID,0.0289063,
2016-07-30, 00:04:04,VALID,915.319,VALID,0,VALID,70.7224,VALID,231.213,VALID,26.0757,VALID,20,VALID,0.294531,
2016-07-30, 00:05:04,VALID,915.312,VALID,0,VALID,70.4404,VALID,236.8,VALID,26.1733,VALID,46,VALID,0,
2016-07-30, 00:06:04,VALID,915.345,VALID,0,VALID,70.5471,VALID,233.147,VALID,26.1538,VALID,49,VALID,0.187109,
2016-07-30, 00:07:04,VALID,915.365,VALID,0,VALID,71.7287,VALID,228.42,VALID,26.2339,VALID,11,VALID,0.201953,
2016-07-30, 00:08:04,VALID,915.428,VALID,0,VALID,72.209,VALID,219.502,VALID,26.2905,VALID,23,VALID,0.207813,
2016-07-30, 00:09:04,VALID,915.399,VALID,0,VALID,69.2587,VALID,210.262,VALID,26.2514,VALID,284,VALID,0.697656,
2016-07-30, 00:10:04,VALID,915.408,VALID,0,VALID,70.8063,VALID,188.344,VALID,26.1733,VALID,25,VALID,0.000390625,
2016-07-30, 00:11:04,VALID,915.435,VALID,0,VALID,70.6157,VALID,171.046,VALID,26.2124,VALID,3,VALID,0.0128906,
2016-07-30, 00:12:04,VALID,915.415,VALID,0,VALID,70.2117,VALID,132.26,VALID,26.1733,VALID,53,VALID,0.0015625,
2016-07-30, 00:13:04,VALID,915.442,VALID,0,VALID,71.5076,VALID,78.1097,VALID,26.0366,VALID,21,VALID,1.11758,
2016-07-30, 00:14:04,VALID,915.482,VALID,0,VALID,72.27,VALID,91.325,VALID,25.9389,VALID,38,VALID,0.2125,
2016-07-30, 00:15:04,VALID,915.481,VALID,0,VALID,72.4606,VALID,76.1758,VALID,25.9214,VALID,11,VALID,0,
2016-07-30, 00:16:04,VALID,915.459,VALID,0,VALID,72.8036,VALID,73.5972,VALID,25.8628,VALID,108,VALID,0,
2016-07-30, 00:17:04,VALID,915.463,VALID,0,VALID,72.8341,VALID,69.9442,VALID,25.7456,VALID,341,VALID,0.550781,
2016-07-30, 00:18:04,VALID,915.455,VALID,0,VALID,74.2521,VALID,69.2995,VALID,25.4917,VALID,19,VALID,0.884375,
2016-07-30, 00:19:04,VALID,915.43,VALID,0,VALID,75.8301,VALID,66.721,VALID,25.3336,VALID,346,VALID,0,
2016-07-30, 00:20:04,VALID,915.431,VALID,0,VALID,75.8225,VALID,65.1093,VALID,25.3355,VALID,21,VALID,0,
2016-07-30, 00:21:04,VALID,915.444,VALID,0,VALID,76.4095,VALID,61.6712,VALID,25.2574,VALID,44,VALID,0,
2016-07-30, 00:22:04,VALID,915.481,VALID,0,VALID,76.2189,VALID,56.7289,VALID,25.1617,VALID,276,VALID,0,
2016-07-30, 00:23:04,VALID,915.453,VALID,0,VALID,77.7207,VALID,54.5801,VALID,25.0036,VALID,203,VALID,0,
2016-07-30, 00:24:04,VALID,915.476,VALID,0,VALID,77.8579,VALID,58.9852,VALID,24.9645,VALID,324,VALID,0,
2016-07-30, 00:25:04,VALID,915.488,VALID,0,VALID,78.2239,VALID,61.8861,VALID,24.8845,VALID,324,VALID,0,
2016-07-30, 00:26:04,VALID,915.446,VALID,0,VALID,78.666,VALID,68.5475,VALID,24.8278,VALID,17,VALID,0.794922,
2016-07-30, 00:27:04,VALID,915.456,VALID,0,VALID,77.8884,VALID,97.1268,VALID,24.7107,VALID,10,VALID,1.18867,
2016-07-30, 00:28:04,VALID,915.479,VALID,0,VALID,79.0472,VALID,132.797,VALID,24.5368,VALID,15,VALID,0,
2016-07-30, 00:29:04,VALID,915.463,VALID,0,VALID,80.2441,VALID,101.962,VALID,24.4392,VALID,15,VALID,0,
2016-07-30, 00:30:04,VALID,915.441,VALID,0,VALID,80.5643,VALID,78.8618,VALID,24.3806,VALID,17,VALID,0,
2016-07-30, 00:31:04,VALID,915.454,VALID,0,VALID,81.3876,VALID,68.1177,VALID,24.3007,VALID,3,VALID,0,
2016-07-30, 00:32:04,VALID,915.472,VALID,0,VALID,82.493,VALID,62.101,VALID,24.3026,VALID,3,VALID,0,
2016-07-30, 00:33:04,VALID,915.449,VALID,0,VALID,81.723,VALID,58.448,VALID,24.3026,VALID,351,VALID,0,
2016-07-30, 00:34:04,VALID,915.492,VALID,0,VALID,81.9136,VALID,61.8861,VALID,24.3416,VALID,352,VALID,0,
2016-07-30, 00:35:04,VALID,915.463,VALID,0,VALID,81.0217,VALID,54.6875,VALID,24.3593,VALID,351,VALID,0,
2016-07-30, 00:36:04,VALID,915.469,VALID,0,VALID,81.0598,VALID,53.7206,VALID,24.3593,VALID,1,VALID,0,
2016-07-30, 00:37:04,VALID,915.484,VALID,0,VALID,82.3329,VALID,59.9522,VALID,24.2226,VALID,7,VALID,0,
2016-07-30, 00:38:04,VALID,915.464,VALID,0,VALID,83.1943,VALID,87.1348,VALID,24.1854,VALID,22,VALID,0.00507812,
2016-07-30, 00:39:04,VALID,915.466,VALID,0,VALID,83.5145,VALID,109.805,VALID,24.0878,VALID,8,VALID,0.302344,
2016-07-30, 00:40:04,VALID,915.5,VALID,0,VALID,84.6199,VALID,113.028,VALID,23.9298,VALID,12,VALID,0.864453,
2016-07-30, 00:41:04,VALID,915.48,VALID,0,VALID,87.7913,VALID,83.1595,VALID,23.8536,VALID,23,VALID,0.799219,
2016-07-30, 00:42:04,VALID,915.49,VALID,0,VALID,89.2168,VALID,50.3899,VALID,23.8127,VALID,18,VALID,0.532422,
2016-07-30, 00:43:04,VALID,915.508,VALID,0,VALID,88.5841,VALID,42.2244,VALID,23.8145,VALID,6,VALID,0.0417969,
2016-07-30, 00:44:04,VALID,915.544,VALID,0,VALID,88.7289,VALID,38.2491,VALID,23.8145,VALID,354,VALID,0.120312,
2016-07-30, 00:45:04,VALID,915.531,VALID,0,VALID,89.9258,VALID,35.9928,VALID,23.7755,VALID,351,VALID,0.00351562,
2016-07-30, 00:46:04,VALID,915.555,VALID,0,VALID,93.5164,VALID,34.3812,VALID,23.7364,VALID,20,VALID,0,
2016-07-30, 00:47:04,VALID,915.544,VALID,0,VALID,93.9052,VALID,32.4472,VALID,23.7755,VALID,4,VALID,0,
2016-07-30, 00:48:04,VALID,915.547,VALID,0,VALID,99.2111,VALID,31.8026,VALID,23.8145,VALID,4,VALID,0,
2016-07-30, 00:49:04,VALID,915.562,VALID,0,VALID,98.6546,VALID,31.2654,VALID,23.7755,VALID,26,VALID,0.455469,
2016-07-30, 00:50:04,VALID,915.616,VALID,0,VALID,101.795,VALID,31.3728,VALID,23.6974,VALID,13,VALID,0.284766,
2016-07-30, 00:51:04,VALID,915.595,VALID,0,VALID,102.687,VALID,38.6788,VALID,23.5803,VALID,5,VALID,0.764453,
2016-07-30, 00:52:04,VALID,915.659,VALID,0,VALID,104,VALID,42.1169,VALID,23.4827,VALID,19,VALID,1.48672,
2016-07-30, 00:53:04,VALID,915.667,VALID,0,VALID,104,VALID,29.0091,VALID,23.465,VALID,20,VALID,1.26367,
2016-07-30, 00:54:04,VALID,915.688,VALID,0,VALID,104,VALID,25.8933,VALID,23.4241,VALID,19,VALID,0.0984375,
2016-07-30, 00:55:04,VALID,915.753,VALID,0,VALID,104,VALID,27.0752,VALID,23.4845,VALID,6,VALID,0,
2016-07-30, 00:56:04,VALID,915.751,VALID,0,VALID,104,VALID,31.4803,VALID,23.4614,VALID,342,VALID,0.110156,
2016-07-30, 00:57:04,VALID,915.812,VALID,0,VALID,104,VALID,32.0175,VALID,23.4437,VALID,342,VALID,0,
2016-07-30, 00:58:04,VALID,915.794,VALID,0,VALID,104,VALID,27.1826,VALID,23.4046,VALID,5,VALID,0,
2016-07-30, 00:59:04,VALID,915.797,VALID,0,VALID,104,VALID,24.2817,VALID,23.3851,VALID,305,VALID,0,
2016-07-30, 01:00:04,VALID,915.805,VALID,0,VALID,104,VALID,22.4552,VALID,23.3656,VALID,29,VALID,0.334375,
2016-07-30, 01:01:04,VALID,915.813,VALID,0,VALID,104,VALID,20.1989,VALID,23.3265,VALID,346,VALID,0.0078125,
2016-07-30, 01:02:04,VALID,915.825,VALID,0,VALID,104,VALID,18.1576,VALID,23.2893,VALID,27,VALID,0,
2016-07-30, 01:03:04,VALID,915.784,VALID,0,VALID,104,VALID,16.4385,VALID,23.268,VALID,24,VALID,0,
2016-07-30, 01:04:04,VALID,915.813,VALID,0,INVALID,109.228,VALID,14.8269,VALID,23.229,VALID,24,VALID,0,
2016-07-30, 01:05:04,VALID,915.836,VALID,0,INVALID,109.701,VALID,13.2153,VALID,23.229,VALID,28,VALID,0,
2016-07-30, 01:06:04,VALID,915.82,VALID,0,INVALID,109.701,VALID,12.2483,VALID,23.1722,VALID,19,VALID,0,
2016-07-30, 01:07:04,VALID,915.838,VALID,0,INVALID,110.143,VALID,11.2813,VALID,23.0924,VALID,16,VALID,0,
2016-07-30, 01:08:04,VALID,915.84,VALID,0,INVALID,110.402,VALID,10.5292,VALID,23.0746,VALID,16,VALID,0,
2016-07-30, 01:09:04,VALID,915.844,VALID,0,INVALID,110.273,VALID,9.6697,VALID,22.9965,VALID,4,VALID,1.06445,
2016-07-30, 01:10:04,VALID,915.87,VALID,0,INVALID,110.799,VALID,8.91762,VALID,22.938,VALID,358,VALID,0,
2016-07-30, 01:11:04,VALID,915.852,VALID,0,INVALID,110.898,VALID,8.16553,VALID,22.8989,VALID,12,VALID,0.249219,
2016-07-30, 01:12:04,VALID,915.877,VALID,0,INVALID,111.096,VALID,7.52088,VALID,22.8989,VALID,13,VALID,0.583594,
2016-07-30, 01:13:04,VALID,915.876,VALID,0,INVALID,111.111,VALID,6.98368,VALID,22.8989,VALID,358,VALID,0.015625,
2016-07-30, 01:14:04,VALID,915.854,VALID,0,INVALID,110.928,VALID,6.44647,VALID,22.8812,VALID,20,VALID,1.74883,
2016-07-30, 01:15:04,VALID,915.907,VALID,0,INVALID,111.553,VALID,6.12415,VALID,22.8014,VALID,48,VALID,0.163281,
2016-07-30, 01:16:04,VALID,915.919,VALID,0,INVALID,111.584,VALID,5.80182,VALID,22.7623,VALID,338,VALID,0.465234,
2016-07-30, 01:17:04,VALID,915.944,VALID,0,INVALID,111.836,VALID,5.15718,VALID,22.7233,VALID,8,VALID,1.2293,
2016-07-30, 01:18:04,VALID,915.94,VALID,0,INVALID,112.14,VALID,4.61997,VALID,22.7055,VALID,10,VALID,1.04922,
2016-07-30, 01:19:04,VALID,915.942,VALID,0,INVALID,112.194,VALID,4.19021,VALID,22.7055,VALID,16,VALID,0.151172,
2016-07-30, 01:20:04,VALID,915.963,VALID,0,INVALID,112.293,VALID,3.97532,VALID,22.7038,VALID,17,VALID,0,
2016-07-30, 01:21:04,VALID,915.984,VALID,0,INVALID,112.148,VALID,3.86788,VALID,22.7428,VALID,19,VALID,0,
2016-07-30, 01:22:04,VALID,916.004,VALID,0,INVALID,112.003,VALID,3.86788,VALID,22.7216,VALID,7,VALID,0,
2016-07-30, 01:23:04,VALID,916.035,VALID,0,INVALID,112.407,VALID,3.86788,VALID,22.6843,VALID,6,VALID,0,
2016-07-30, 01:24:04,VALID,916.051,VALID,0,INVALID,112.506,VALID,3.86788,VALID,22.6843,VALID,7,VALID,0,
2016-07-30, 01:25:04,VALID,916.108,VALID,0,INVALID,112.522,VALID,4.08276,VALID,22.6452,INVALID,360,VALID,0,
2016-07-30, 01:26:04,VALID,917.326,VALID,0,INVALID,112.682,VALID,3.86788,VALID,22.6257,VALID,9,VALID,0,
2016-07-30, 01:27:04,VALID,917.582,VALID,0,INVALID,112.91,VALID,3.11579,VALID,22.5867,VALID,10,VALID,0,
2016-07-30, 01:28:04,VALID,916.678,VALID,0,INVALID,113.048,VALID,2.04138,VALID,22.5867,VALID,9,VALID,0,
2016-07-30, 21:06:04,VALID,915.592,VALID,0,INVALID,115.38,VALID,67.6879,VALID,21.0064,VALID,20,VALID,0,
2016-07-30, 21:07:04,VALID,915.878,VALID,0,INVALID,115.274,VALID,79.9362,VALID,21.0259,VALID,19,VALID,0,
2016-07-30, 21:08:04,VALID,915.844,VALID,0,INVALID,115.319,VALID,86.2752,VALID,20.9674,VALID,126,VALID,0,
2016-07-30, 21:09:04,VALID,915.762,VALID,0.2,INVALID,115.289,VALID,98.2012,VALID,20.9479,VALID,126,VALID,0,
2016-07-30, 21:10:04,VALID,915.774,VALID,0,INVALID,115.266,VALID,104.755,VALID,20.9495,VALID,126,VALID,0,
2016-07-30, 21:11:04,VALID,915.77,VALID,0,INVALID,115.129,VALID,112.169,VALID,20.969,VALID,59,VALID,0,
2016-07-30, 21:12:04,VALID,915.819,VALID,0,INVALID,115.007,VALID,108.623,VALID,21.0064,VALID,20,VALID,0,
2016-07-30, 21:13:04,VALID,915.823,VALID,0.2,INVALID,115.03,VALID,87.0273,VALID,20.9869,VALID,21,VALID,0,
2016-07-30, 21:14:04,VALID,916.441,VALID,0,INVALID,115.083,VALID,65.1093,VALID,20.9479,VALID,19,VALID,0,
2016-07-30, 21:19:04,VALID,915.154,VALID,0,INVALID,115.434,VALID,68.3326,VALID,20.4618,VALID,9,VALID,0.504687,
2016-07-30, 21:20:04,INVALID,917.449,VALID,0,INVALID,115.289,VALID,78.7544,VALID,20.4423,VALID,23,VALID,0,
2016-07-30, 21:21:04,VALID,919.384,VALID,0,INVALID,114.976,VALID,74.027,VALID,20.5789,VALID,23,VALID,0,
2016-07-30, 21:22:04,INVALID,915.587,VALID,0,INVALID,114.893,VALID,74.5642,VALID,20.6179,VALID,23,VALID,0,
2016-07-30, 21:23:04,VALID,917.315,VALID,0,INVALID,114.946,VALID,75.746,VALID,20.5399,INVALID,360,VALID,0,
2016-07-30, 21:24:04,VALID,917.217,VALID,0,INVALID,114.87,VALID,75.6386,VALID,20.5399,VALID,338,VALID,0,
2016-07-30, 21:25:04,VALID,916.171,VALID,0,INVALID,114.702,VALID,77.7874,VALID,20.5984,VALID,338,VALID,0,
2016-07-30, 21:26:04,VALID,916.463,VALID,0,INVALID,114.527,VALID,81.0106,VALID,20.6959,VALID,338,VALID,0,
2016-07-30, 21:27:04,VALID,915.754,VALID,0,INVALID,114.458,VALID,83.8041,VALID,20.756,VALID,338,VALID,0,
2016-07-30, 21:28:04,VALID,915.748,VALID,0,INVALID,114.519,VALID,87.5645,VALID,20.7349,VALID,338,VALID,0,
2016-07-30, 21:29:04,VALID,915.594,VALID,0,INVALID,114.641,VALID,91.6473,VALID,20.6569,VALID,338,VALID,0,
2016-07-30, 21:30:04,VALID,915.618,VALID,0,INVALID,114.519,VALID,96.697,VALID,20.717,VALID,338,VALID,0,
2016-07-30, 21:31:04,VALID,915.652,VALID,0,INVALID,114.45,VALID,104.648,VALID,20.6764,VALID,338,VALID,0,
2016-07-30, 21:32:04,VALID,915.688,VALID,0,INVALID,114.466,VALID,106.904,VALID,20.6764,VALID,338,VALID,0,
2016-07-30, 21:33:04,VALID,915.725,VALID,0,INVALID,114.321,VALID,106.689,VALID,20.7349,VALID,338,VALID,0,
2016-07-30, 21:34:04,VALID,915.738,VALID,0,INVALID,114.321,VALID,110.02,VALID,20.7739,VALID,350,VALID,0,
2016-07-30, 21:35:04,VALID,915.781,VALID,0,INVALID,114.222,VALID,111.739,VALID,20.834,VALID,349,VALID,0,
2016-07-30, 21:36:04,VALID,915.807,VALID,0,INVALID,114.077,VALID,107.119,VALID,20.9316,VALID,16,VALID,0,
2016-07-30, 21:37:04,VALID,915.79,VALID,0,INVALID,114.077,VALID,110.127,VALID,20.9495,VALID,17,VALID,0,
2016-07-30, 21:38:04,VALID,915.797,VALID,0,INVALID,114.031,VALID,119.797,VALID,21.008,VALID,17,VALID,0,
2016-07-30, 21:39:04,VALID,915.77,VALID,0,INVALID,114.328,VALID,133.012,VALID,20.873,VALID,314,VALID,0,
2016-07-30, 21:40:04,VALID,915.741,VALID,0,INVALID,114.74,VALID,136.02,VALID,20.5984,VALID,10,VALID,0,
2016-07-30, 21:41:04,VALID,915.688,VALID,0,INVALID,114.763,VALID,139.673,VALID,20.4813,VALID,277,VALID,0,
2016-07-30, 21:42:04,VALID,915.668,VALID,0,INVALID,114.687,VALID,153.104,VALID,20.4618,VALID,277,VALID,0,
2016-07-30, 21:43:04,VALID,915.619,VALID,0,INVALID,114.504,VALID,161.591,VALID,20.5399,VALID,277,VALID,0,
2016-07-30, 21:44:04,VALID,915.6,VALID,0,INVALID,114.565,VALID,173.84,VALID,20.4813,VALID,264,VALID,0,
2016-07-30, 21:45:04,VALID,915.564,VALID,0,INVALID,114.588,VALID,187.915,VALID,20.4829,VALID,247,VALID,0,
2016-07-30, 21:46:04,VALID,915.582,VALID,0,INVALID,114.466,VALID,197.047,VALID,20.5204,VALID,247,VALID,0,
2016-07-30, 21:47:04,VALID,915.544,VALID,0,INVALID,114.275,VALID,206.717,VALID,20.6569,VALID,247,VALID,0,
2016-07-30, 21:48:04,VALID,915.548,VALID,0,INVALID,114.359,VALID,214.13,VALID,20.5789,VALID,247,VALID,0,
2016-07-30, 21:49:04,VALID,915.505,VALID,0,INVALID,114.671,VALID,216.064,VALID,20.4033,VALID,250,VALID,0,
2016-07-30, 21:50:04,VALID,915.506,VALID,0,INVALID,114.725,VALID,218.32,VALID,20.3643,VALID,250,VALID,0,
2016-07-30, 21:51:04,VALID,915.474,VALID,0,INVALID,114.9,VALID,226.701,VALID,20.3074,VALID,250,VALID,0,
2016-07-30, 21:52:04,VALID,915.438,VALID,0,INVALID,114.87,VALID,242.172,VALID,20.3058,VALID,249,VALID,0,
2016-07-30, 21:53:04,VALID,915.43,VALID,0,INVALID,114.854,VALID,257.214,VALID,20.3058,VALID,249,VALID,0,
2016-07-30, 21:54:04,VALID,915.412,VALID,0,INVALID,114.61,VALID,257.644,VALID,20.4829,VALID,259,VALID,0,
2016-07-30, 21:55:04,VALID,915.382,VALID,0,INVALID,114.443,VALID,248.082,VALID,20.6585,VALID,354,VALID,0,
2016-07-30, 21:56:04,VALID,915.386,VALID,0,INVALID,114.466,VALID,223.907,VALID,20.6764,VALID,3,VALID,0,
2016-07-30, 21:57:04,VALID,915.365,VALID,0,INVALID,114.313,VALID,233.577,VALID,20.8324,VALID,15,VALID,0,
2016-07-30, 21:58:04,VALID,915.355,VALID,0,INVALID,114.458,VALID,240.024,VALID,20.8129,INVALID,360,VALID,0,
2016-07-30, 21:59:04,VALID,915.279,VALID,0,INVALID,114.74,VALID,246.792,VALID,20.7544,VALID,342,VALID,0,
2016-07-30, 22:00:04,VALID,915.249,VALID,0,INVALID,114.771,VALID,254.313,VALID,20.7739,VALID,343,VALID,0,
2016-07-30, 22:01:04,VALID,915.223,VALID,0,INVALID,114.649,VALID,262.156,VALID,20.8519,VALID,342,VALID,0,
2016-07-30, 22:02:04,VALID,915.213,VALID,0,INVALID,114.595,VALID,269.892,VALID,20.9495,VALID,343,VALID,0,
2016-07-30, 22:03:04,VALID,915.265,VALID,0,INVALID,114.435,VALID,275.694,VALID,21.086,VALID,343,VALID,0,
2016-07-30, 22:04:04,VALID,915.267,VALID,0,INVALID,114.298,VALID,278.81,VALID,21.2226,VALID,343,VALID,0,
2016-07-30, 22:05:04,VALID,915.305,VALID,0,INVALID,114.527,VALID,282.463,VALID,21.1657,VALID,312,VALID,0,
2016-07-30, 22:06:04,VALID,915.341,VALID,0,INVALID,115.037,VALID,289.017,VALID,20.969,VALID,210,VALID,0,
2016-07-30, 22:07:04,VALID,915.336,VALID,0,INVALID,115.129,VALID,297.397,VALID,21.008,VALID,209,VALID,0,
2016-07-30, 22:08:04,VALID,915.351,VALID,0,INVALID,115.594,VALID,312.224,VALID,20.8699,VALID,237,VALID,0,
2016-07-30, 22:09:04,VALID,915.303,VALID,0,INVALID,115.914,VALID,350.366,VALID,20.7739,VALID,237,VALID,0,
2016-07-30, 22:10:04,VALID,915.297,VALID,0,INVALID,116.379,VALID,319.1,VALID,20.5609,VALID,236,VALID,0,
2016-07-30, 22:11:04,VALID,915.289,VALID,0,INVALID,116.669,VALID,415.475,VALID,20.4423,VALID,237,VALID,0,
2016-07-30, 22:12:04,VALID,915.297,VALID,0,INVALID,116.654,VALID,619.076,VALID,20.5789,VALID,237,VALID,0,
2016-07-30, 22:13:04,VALID,915.307,VALID,0,INVALID,116.608,VALID,628.853,VALID,20.7739,VALID,229,VALID,0,
2016-07-30, 22:14:04,VALID,915.356,VALID,0,INVALID,116.516,VALID,471.452,VALID,20.9869,VALID,229,VALID,0,
2016-07-30, 22:15:04,VALID,915.389,VALID,0,INVALID,116.44,VALID,496.486,VALID,21.2015,VALID,234,VALID,0,
2016-07-30, 22:16:04,VALID,915.406,VALID,0,INVALID,116.768,VALID,377.333,VALID,21.2031,VALID,236,VALID,0,
2016-07-30, 22:17:04,VALID,915.403,VALID,0,INVALID,116.791,VALID,450.501,VALID,21.338,VALID,359,VALID,0,
2016-07-30, 22:18:04,VALID,915.37,VALID,0,INVALID,116.92,VALID,680.962,VALID,21.455,VALID,346,VALID,0,
2016-07-30, 22:19:04,VALID,915.33,VALID,0,INVALID,116.844,VALID,605.001,VALID,21.7087,VALID,12,VALID,0,
2016-07-30, 22:20:04,VALID,915.301,VALID,0,INVALID,116.814,VALID,592.108,VALID,21.9428,VALID,357,VALID,0,
2016-07-30, 22:21:04,VALID,915.261,VALID,0,INVALID,116.875,VALID,566.322,VALID,22.1184,VALID,9,VALID,0,
2016-07-30, 22:22:04,VALID,915.263,VALID,0,INVALID,116.737,VALID,483.807,VALID,22.2159,VALID,44,VALID,0,
2016-07-30, 22:23:04,VALID,915.262,VALID,0.2,INVALID,116.257,VALID,433.31,VALID,22.1947,VALID,60,VALID,0,
2016-07-30, 22:24:04,VALID,915.29,VALID,0,INVALID,115.228,VALID,455.443,VALID,22.0989,VALID,66,VALID,0,
2016-07-30, 22:25:04,VALID,915.323,VALID,0.2,INVALID,114.664,VALID,434.814,VALID,22.1005,VALID,66,VALID,0,
2016-07-30, 22:26:04,VALID,915.32,VALID,0,INVALID,114.488,VALID,433.525,VALID,22.0972,VALID,106,VALID,0,
2016-07-30, 22:27:04,VALID,915.351,VALID,0,INVALID,114.862,VALID,441.261,VALID,22.1769,VALID,113,VALID,0,
2016-07-30, 22:28:04,VALID,915.33,VALID,0,INVALID,115.35,VALID,410.533,VALID,22.2745,VALID,132,VALID,0,
2016-07-30, 22:29:04,VALID,915.37,VALID,0.2,INVALID,114.046,VALID,279.025,VALID,22.1379,VALID,172,VALID,0,
2016-07-30, 22:30:04,VALID,915.407,VALID,0,INVALID,113.787,VALID,191.675,VALID,22.0582,VALID,172,VALID,0,
2016-07-30, 22:31:04,VALID,915.434,VALID,0,INVALID,113.078,VALID,173.84,VALID,21.9038,VALID,172,VALID,0,
2016-07-30, 22:32:04,VALID,915.467,VALID,0.4,INVALID,113.848,VALID,150.955,VALID,21.8241,VALID,172,VALID,0,
2016-07-30, 22:33:04,VALID,915.481,VALID,0.2,INVALID,113.467,VALID,118.078,VALID,21.668,VALID,172,VALID,0,
2016-07-30, 22:34:04,VALID,915.534,VALID,0.2,INVALID,114.45,VALID,102.929,VALID,21.6485,VALID,171,VALID,0,
2016-07-30, 22:35:04,VALID,915.571,VALID,0.2,INVALID,114.664,VALID,95.0854,VALID,21.6095,VALID,161,VALID,0,
2016-07-30, 22:36:04,VALID,915.584,VALID,0.4,INVALID,114.915,VALID,93.2589,VALID,21.5331,VALID,161,VALID,0,
2016-07-30, 22:37:04,VALID,915.609,VALID,0.2,INVALID,115.243,VALID,92.5068,VALID,21.5136,VALID,154,VALID,0,
2016-07-30, 22:38:04,VALID,915.578,VALID,0.2,INVALID,115.098,VALID,91.4324,VALID,21.3965,VALID,138,VALID,0,
2016-07-30, 22:39:04,VALID,915.568,VALID,0,INVALID,115.236,VALID,90.2506,VALID,21.3364,VALID,113,VALID,0,
2016-07-30, 22:40:04,VALID,915.556,VALID,0.2,INVALID,115.495,VALID,90.7878,VALID,21.2795,VALID,113,VALID,0,
2016-07-30, 22:41:04,VALID,915.506,VALID,0,INVALID,115.853,VALID,92.0771,VALID,21.2795,VALID,113,VALID,0,
2016-07-30, 22:42:04,VALID,915.483,VALID,0.2,INVALID,116.036,VALID,91.7547,VALID,21.26,VALID,113,VALID,0,
2016-07-30, 22:43:04,VALID,915.487,VALID,0,INVALID,116.196,VALID,89.9282,VALID,21.2389,VALID,113,VALID,0,
2016-07-30, 22:44:04,VALID,915.459,VALID,0,INVALID,116.295,VALID,86.8125,VALID,21.26,VALID,113,VALID,0,
2016-07-30, 22:45:04,VALID,915.44,VALID,0.2,INVALID,116.417,VALID,83.2669,VALID,21.3396,VALID,114,VALID,0,
2016-07-30, 22:46:04,VALID,915.455,VALID,0,INVALID,116.471,VALID,79.5065,VALID,21.299,VALID,116,VALID,0,
2016-07-30, 22:47:04,VALID,915.478,VALID,0,INVALID,116.501,VALID,75.746,VALID,21.3396,VALID,116,VALID,0,
2016-07-30, 22:48:04,VALID,915.5,VALID,0,INVALID,116.585,VALID,69.2995,VALID,21.26,VALID,116,VALID,0,
2016-07-30, 22:49:04,VALID,915.51,VALID,0,INVALID,116.547,VALID,64.8945,VALID,21.2389,VALID,116,VALID,0,
2016-07-30, 22:50:04,VALID,915.524,VALID,0,INVALID,116.524,VALID,64.0349,VALID,21.26,VALID,167,VALID,0,
2016-07-30, 22:51:04,VALID,915.518,VALID,0,INVALID,116.577,VALID,61.9935,VALID,21.1429,VALID,226,VALID,0,
2016-07-30, 22:52:04,VALID,915.538,VALID,0,INVALID,116.509,VALID,61.0266,VALID,21.1218,VALID,226,VALID,0,
2016-07-30, 22:53:04,VALID,915.506,VALID,0,INVALID,116.516,VALID,59.7373,VALID,21.0454,VALID,226,VALID,0,
2016-07-30, 22:54:04,VALID,915.517,VALID,0,INVALID,116.486,VALID,58.7703,VALID,21.0064,VALID,227,VALID,0,
2016-07-30, 22:55:04,VALID,915.481,VALID,0,INVALID,116.379,VALID,58.6629,VALID,21.0064,VALID,226,VALID,0,
2016-07-30, 22:56:04,VALID,915.507,VALID,0.2,INVALID,116.333,VALID,58.5554,VALID,20.9869,VALID,226,VALID,0,
2016-07-30, 22:57:04,VALID,915.464,VALID,0,INVALID,116.402,VALID,56.2992,VALID,20.8699,VALID,227,VALID,0,
2016-07-30, 22:58:04,VALID,915.447,VALID,0,INVALID,116.326,VALID,57.3736,VALID,20.8699,VALID,226,VALID,0,
2016-07-30, 22:59:04,VALID,915.47,VALID,0,INVALID,116.257,VALID,57.9108,VALID,20.8504,VALID,226,VALID,0,
2016-07-30, 23:00:04,VALID,915.474,VALID,0,INVALID,116.219,VALID,57.5885,VALID,20.8309,VALID,227,VALID,0,
2016-07-30, 23:01:04,VALID,915.5,VALID,0,INVALID,116.158,VALID,57.1587,VALID,20.8309,VALID,226,VALID,0,
2016-07-30, 23:02:04,VALID,915.484,VALID,0,INVALID,116.028,VALID,56.0843,VALID,20.8504,VALID,227,VALID,0,
2016-07-30, 23:03:04,VALID,915.521,VALID,0,INVALID,115.983,VALID,52.109,VALID,20.8504,VALID,222,VALID,0,
2016-07-30, 23:04:04,VALID,915.534,VALID,0,INVALID,115.967,VALID,49.208,VALID,20.8309,VALID,223,VALID,0,
2016-07-30, 23:05:04,VALID,915.535,VALID,0,INVALID,115.929,VALID,46.9518,VALID,20.8113,VALID,224,VALID,0,
2016-07-30, 23:06:04,VALID,915.555,VALID,0,INVALID,115.906,VALID,44.5881,VALID,20.7934,VALID,225,VALID,0,
2016-07-30, 23:07:04,VALID,915.59,VALID,0,INVALID,115.975,VALID,39.8607,VALID,20.7349,VALID,227,VALID,0,
2016-07-30, 23:08:04,VALID,915.551,VALID,0,INVALID,115.937,VALID,35.7779,VALID,20.6943,VALID,226,VALID,0,
2016-07-30, 23:09:04,VALID,915.567,VALID,0,INVALID,115.983,VALID,35.7779,VALID,20.6163,VALID,227,VALID,0,
2016-07-30, 23:10:04,VALID,915.576,VALID,0,INVALID,115.99,VALID,37.497,VALID,20.5984,VALID,227,VALID,0,
2016-07-30, 23:11:04,VALID,915.602,VALID,0,INVALID,115.884,VALID,36.7449,VALID,20.5773,VALID,219,VALID,0,
2016-07-30, 23:12:04,VALID,915.584,VALID,0,INVALID,115.777,VALID,35.7779,VALID,20.5968,VALID,220,VALID,0,
2016-07-30, 23:13:04,VALID,915.576,VALID,0,INVALID,115.762,VALID,35.2407,VALID,20.5984,VALID,205,VALID,0,
2016-07-30, 23:14:04,VALID,915.56,VALID,0,INVALID,115.723,VALID,36.1002,VALID,20.5789,VALID,201,VALID,0,
2016-07-30, 23:15:04,VALID,915.565,VALID,0,INVALID,115.662,VALID,38.2491,VALID,20.5984,VALID,201,VALID,0,
2016-07-30, 23:16:04,VALID,915.564,VALID,0,INVALID,115.609,VALID,40.5053,VALID,20.5984,VALID,201,VALID,0,
2016-07-30, 23:17:04,VALID,915.556,VALID,0,INVALID,115.601,VALID,43.0839,VALID,20.5789,VALID,229,VALID,0,
2016-07-30, 23:18:04,VALID,915.531,VALID,0,INVALID,115.594,VALID,49.208,VALID,20.5789,VALID,228,VALID,0,
2016-07-30, 23:19:04,VALID,915.514,VALID,0,INVALID,115.609,VALID,56.9438,VALID,20.5594,VALID,228,VALID,0,
2016-07-30, 23:20:04,VALID,915.515,VALID,0,INVALID,115.601,VALID,66.0763,VALID,20.5609,VALID,227,VALID,0,
2016-07-30, 23:21:04,VALID,915.481,VALID,0,INVALID,115.754,VALID,75.4237,VALID,20.4829,VALID,229,VALID,0,
2016-07-30, 23:22:04,VALID,915.473,VALID,0,INVALID,115.792,VALID,83.3743,VALID,20.4634,VALID,228,VALID,0,